Погода в Усть-Кинельском

Россия / Самарская область     53°16′07″N   50°35′11″E
темп.,
°C
ветер,
м/с
пор.,
м/с
влажн.,
%
обл.,
%
осадки,
мм/ч
давл.,
гПа
погр.,
м
20 апреля, вт
вт2001:00+4в5106421 0.0 1027464
04:00+3в612594 0.0 1028488
07:00+2в713550 0.0 1029618
10:00+5вюв810430 0.0 1029940
13:00+9вюв810350 0.0 10291338
16:00+10вюв91132100 0.0 10271351
19:00+8вюв7123978 0.0 1027645
22:00+6вюв61444100 0.0 1028596
21 апреля, ср
ср2101:00+4вюв81647100 0.0 1027640
04:00+4юв71549100 0.0 1027668
07:00+4юв81651100 0.0 1026718
10:00+6юв81548100 0.0 1026895
13:00+3ююв81577100 1.1 1026746
16:00+4ююв81575100 3.3 1026838
19:00+2юв81898100 5.1 1025691
22:00+3ююв71593100 7.4 1025812
22 апреля, чт
чт2201:00+4ююв61294100 1.2 1025591
04:00+4ююв51195100 2.8 1026501
07:00+5ююв61391100 0.2 1026623
10:00+6ююв51087100 0.2 1027573
13:00+8ююв787485 0.0 1027874
16:00+7ююв6785100 0.0 1027702
19:00+6ююв5887100 0.0 1027578
22:00+5юв4889100 0.0 1027420
23 апреля, пт
пт2301:00+5ююв3793100 0.0 1027388
04:00+5юв2495100 0.0 1027205
07:00+5юв3493100 0.0 1027202
10:00+8всв2279100 0.0 1026562
13:00+12в4568100 0.0 1026860
16:00+13всв4564100 0.0 10241038
19:00+11всв2473100 0.0 102377
22:00+9в2479100 0.0 102291
24 апреля, сб
сб2401:00+8ююв3586100 0.0 1021173
04:00+7в2594100 0.3 1019313
07:00+7св4793100 1.2 1017475
10:00+7св3690100 1.8 1015547
13:00+8св2387100 0.6 1014399
16:00+8ссв2386100 0.9 1014412
19:00+7зсз1189100 0.0 101449
22:00+7юз119240 0.0 101326